Location: Newark
(41.9364°N, 2.8061°E)
Time: 17:16:03
(UTC+00:00)

SR - Visible Passes

Search period start: 26 February 2020 00:00
Search period end: 07 March 2020 00:00
Orbit: 575 x 880 km, 66.7° (Epoch: 25 February)

Date Brightness Start Highest point End Pass type
(mag) Time Alt. Az. Time Alt. Az. Time Alt. Az.
29 Feb ? 20:45:32 10° N 20:46:01 12° N 20:46:01 12° N visible
01 Mar ? 19:57:04 10° NNE 19:57:45 11° NNE 19:57:45 11° NNE visible
01 Mar ? 21:37:09 10° NNW 21:37:09 10° NNW 21:37:09 10° NNW visible
02 Mar ? 20:47:45 10° NNW 20:48:55 15° N 20:48:55 15° N visible
03 Mar ? 19:58:39 10° N 20:00:42 16° NNE 20:00:42 16° NNE visible
03 Mar ? 21:39:51 10° NNW 21:40:07 11° NNW 21:40:07 11° NNW visible
04 Mar ? 19:10:23 10° NNE 19:11:50 11° NNE 19:12:31 11° NE visible
04 Mar ? 20:50:12 10° NNW 20:51:56 20° NNW 20:51:56 20° NNW visible
05 Mar ? 20:00:50 10° NNW 20:03:47 24° NNE 20:03:47 24° NNE visible
05 Mar ? 21:42:50 10° NW 21:43:12 12° NW 21:43:12 12° NW visible
06 Mar ? 19:11:47 10° N 19:15:09 17° NE 19:15:40 17° NE visible
06 Mar ? 20:52:53 10° NNW 20:55:06 26° NNW 20:55:06 26° NNW visible
